RH
82 78 79 78 78 78 79 82 80 80 81 84 77 79 84 82 86 96 97 96 97 98 98 96 96 94 97 97 96 89 78 73 56 57 50 46 50 61 62 72 63 72 75
84 84 87 85 81 82 82 80 75 78 86 91 90 86 86 84 82 94 96 96 96 97 97 95 97 95 97 95 96 91 87 84 88 87 90 89 84 81 82 71 52 50 64
79 70 78 83 85 88 86 85 84 87 90 93 95 96 94 95 97 94 94 94 94 95 95 96 97 95 97 97 96 97 96 96 95 96 97 95 94 90 83 75 71 63 50
76 74 85 81 81 81 79 88 88 87 96 98 97 97 97 96 95 96 96 96 96 96 96 96 95 94 95 96 96 96 97 98 95 96 96 96 95 91 88 86 80 70 59
75 79 80 77 74 75 80 85 86 93 93 93 95 95 94 94 94 95 96 97 97 98 98 96 96 94 91 94 96 97 95 95 96 96 92 80 76 74 71 60 57 52 50
73 74 76 75 72 74 80 83 88 93 96 93 95 94 96 96 94 94 95 97 97 97 98 98 94 91 89 85 79 72 70 74 73 75 63 59 58 57 55 54 53 56 56
72 70 72 72 69 72 76 80 87 92 94 94 96 93 95 94 93 93 93 95 95 94 93 92 88 81 76 69 67 66 64 64 56 47 52 50 51 51 51 54 54 55 51
72 71 70 70 72 73 76 83 85 86 90 91 95 93 93 92 92 91 88 84 85 83 78 74 69 59 52 46 44 43 42 43 43 38 46 47 46 46 50 51 53 54 53
73 70 70 70 74 76 79 82 82 83 83 83 81 84 88 88 86 81 71 66 66 64 57 52 51 51 62 55 49 52 51 56 64 69 69 66 61 57 53 49 53 53 55
71 69 67 65 72 76 78 78 77 76 74 66 64 63 74 68 75 70 62 56 59 58 55 59 70 63 69 59 48 51 54 53 50 50 48 50 50 58 54 44 44 50 52
68 68 68 67 68 66 71 69 70 68 64 60 60 58 57 61 67 69 66 50 50 50 49 52 58 69 68 68 56 50 56 51 56 48 45 43 41 42 44 45 46 52 59
69 71 68 67 62 58 63 62 59 60 60 60 57 57 55 58 71 69 63 58 53 46 49 52 60 70 70 69 63 73 72 60 52 47 45 45 44 42 41 45 48 51 51
72 73 70 67 56 58 60 63 60 56 57 54 53 54 52 51 57 71 69 65 61 51 49 66 73 70 67 68 71 67 58 52 51 48 47 47 46 46 44 50 54 56 56
73 72 68 66 59 56 56 55 56 55 53 51 50 51 50 50 51 54 58 61 65 55 60 52 62 65 65 60 54 53 49 50 49 49 49 49 51 55 56 57 64 63 62
71 70 67 67 58 57 55 55 53 45 49 48 45 45 50 50 48 57 57 52 47 52 52 50 50 49 49 50 50 50 52 49 51 50 50 54 59 60 61 67 67 66 66
72 72 68 63 59 58 59 60 70 67 69 69 65 51 45 58 69 71 68 66 68 59 48 51 52 49 47 48 47 50 52 55 55 55 62 63 65 68 69 71 65 69 70
72 69 69 64 59 62 60 60 63 68 72 75 70 67 68 71 75 76 77 74 67 57 50 51 57 56 54 52 50 51 56 58 62 61 61 62 65 63 67 68 64 67 67
70 77 66 62 61 60 56 52 49 48 50 61 72 69 77 78 77 78 77 70 62 55 56 61 62 58 55 56 56 58 60 63 65 66 67 69 73 72 74 75 72 75 74
72 71 65 63 61 59 51 47 45 44 45 50 58 71 76 79 78 78 78 59 70 66 62 62 63 60 60 61 62 67 65 62 63 65 69 68 69 76 77 74 76 71 75
70 74 69 64 63 58 54 48 48 47 47 48 48 55 64 73 67 65 62 56 65 70 68 66 66 63 66 70 70 70 68 63 63 67 70 70 70 70 69 74 73 75 75
68 71 71 65 63 59 55 50 47 48 50 51 50 54 67 61 55 59 61 58 66 68 68 68 74 71 71 71 70 70 64 64 74 75 72 70 66 68 66 69 67 70 70
68 70 69 69 66 63 56 49 48 47 49 52 53 59 79 52 55 60 61 64 65 65 68 74 77 75 75 74 70 65 66 69 72 73 73 64 59 58 58 57 58 61 62
68 70 69 68 66 66 60 52 50 47 48 48 52 57 64 55 58 62 68 68 70 70 68 74 77 74 70 65 63 71 71 68 69 68 67 60 55 55 56 58 59 63 66
70 71 70 69 69 63 60 59 52 55 46 46 49 52 59 58 60 65 69 74 75 72 75 78 76 74 68 66 64 67 64 64 63 61 57 56 58 58 58 58 60 62 68
73 71 71 70 71 66 64 59 53 50 48 46 47 50 56 59 61 68 73 79 80 78 76 79 77 68 62 62 66 65 81 82 63 65 54 55 59 58 58 58 60 65 66
74 71 71 70 69 66 66 63 60 56 50 48 48 55 62 65 65 73 78 80 83 82 80 82 76 66 56 56 58 76 85 74 60 59 57 56 58 58 58 63 61 63 66
Wind_Speed
4 5 5 4 4 3 3 2 1 2 4 6 7 8 7 8 9 7 7 8 8 7 8 12 11 11 6 4 4 2 1 1 7 3 2 3 3 4 4 4 4 3 2
6 6 6 5 3 4 4 2 2 3 2 3 5 5 6 8 7 7 8 8 10 10 10 11 11 9 8 6 4 3 2 1 3 3 1 2 3 3 3 3 3 2 1
6 7 6 5 4 4 4 3 2 1 2 1 2 5 5 5 5 5 8 9 9 10 11 10 10 12 8 5 4 3 2 1 2 3 3 1 2 1 2 2 1 1 0
6 6 6 5 4 4 4 4 5 4 4 4 5 6 7 8 9 9 10 11 10 9 9 8 7 8 10 8 5 4 3 3 3 4 3 2 2 1 1 1 1 2 3
7 7 6 5 5 6 5 5 6 6 6 5 7 8 8 8 7 11 10 11 11 10 8 8 8 9 12 9 5 4 4 3 4 3 3 2 2 3 5 4 5 3 4
8 7 7 7 7 8 6 6 6 8 7 7 7 9 9 7 18 18 13 10 10 11 10 9 10 14 14 16 13 10 6 4 5 3 3 3 4 4 3 3 3 4 4
9 8 8 8 9 8 7 8 7 9 9 10 10 11 11 10 19 20 20 10 11 11 11 10 9 8 11 11 16 16 15 14 11 4 5 4 4 3 1 2 2 3 4
10 9 9 10 9 9 10 9 8 8 9 9 9 10 11 11 21 22 22 13 12 11 10 10 11 11 10 10 10 10 10 10 9 7 8 8 7 5 5 5 5 4 2
12 10 10 10 10 10 11 10 8 9 8 9 9 12 12 11 21 23 18 13 13 13 11 11 11 11 12 10 9 9 10 10 12 15 14 12 10 9 5 1 2 3 1
13 12 11 11 11 11 11 10 10 10 10 9 12 13 16 14 18 18 14 11 13 10 11 12 14 11 11 7 6 6 7 7 6 7 7 7 5 6 2 4 3 4 4
13 13 11 12 11 13 11 10 10 10 11 12 13 12 13 13 13 15 13 10 9 9 8 8 8 12 11 9 5 5 7 5 5 4 3 3 3 4 3 2 4 4 4
14 12 13 12 9 10 12 10 10 11 12 12 13 11 10 11 14 14 14 14 12 10 9 8 9 13 13 10 8 11 9 4 3 2 2 3 4 4 4 3 3 4 4
14 13 13 12 12 12 12 12 10 10 9 10 9 9 9 9 9 16 16 16 15 10 8 13 14 13 14 12 12 10 4 3 2 1 3 3 4 5 5 4 4 5 6
15 14 13 13 13 11 9 9 9 8 8 8 9 9 9 9 9 9 9 10 15 12 13 9 11 11 11 8 6 5 4 4 4 3 3 3 3 3 3 4 5 4 5
15 13 13 10 13 11 9 8 8 8 7 9 8 9 10 9 9 11 10 8 7 9 10 6 5 5 5 5 4 4 3 3 3 3 3 4 4 4 3 4 4 5 4
15 11 11 10 11 10 9 8 11 11 11 9 9 8 7 12 16 15 13 14 16 12 6 5 5 4 4 4 4 4 3 3 3 3 3 3 2 3 3 1 3 4 5
16 14 10 11 11 11 10 10 10 8 11 14 12 11 12 16 17 17 17 16 12 6 5 4 4 4 4 3 3 3 3 3 4 2 3 3 4 4 5 4 4 5 5
15 21 12 11 11 11 11 10 9 10 10 8 9 11 14 17 17 17 17 13 6 3 4 4 4 4 4 3 3 2 3 3 2 2 2 3 2 3 3 4 5 5 6
14 12 11 11 11 12 11 11 10 10 10 10 9 9 13 16 16 16 16 5 5 5 4 4 3 4 4 3 3 2 2 2 2 1 2 2 3 2 2 3 4 7 7
14 20 14 12 11 12 11 11 11 10 10 10 10 10 11 13 10 10 8 5 5 4 5 4 4 4 4 4 3 3 2 2 2 1 2 2 3 2 3 4 4 5 5
12 13 19 12 12 12 11 12 11 11 10 10 10 11 16 11 10 9 8 7 6 5 6 5 4 4 4 4 3 3 2 2 2 1 1 2 2 3 4 4 5 5 5
12 13 13 12 11 12 12 11 11 11 11 11 10 10 16 8 8 8 8 7 6 5 5 5 5 5 4 4 3 3 3 3 3 1 1 1 2 3 3 4 4 6 6
13 14 13 12 12 14 12 11 11 11 11 11 10 11 12 8 8 8 8 7 7 6 6 5 5 5 4 4 3 3 3 3 3 3 1 1 2 3 4 5 6 6 6
14 15 14 12 12 12 12 11 11 12 12 11 11 11 11 9 9 9 8 8 7 7 6 6 5 7 6 5 4 4 3 4 3 3 0 2 3 3 4 5 6 8 7
14 14 14 13 13 12 12 12 12 12 11 11 11 10 10 10 9 9 9 8 8 7 7 7 6 8 8 8 7 7 8 5 3 2 0 2 3 4 5 5 7 7 8
14 14 13 12 12 12 12 12 11 11 11 10 10 10 10 10 10 9 9 9 8 8 9 7 8 9 9 8 8 10 11 9 4 0 3 2 3 4 5 6 9 7 9
Wind_Direction
159 146 136 133 104 91 84 61 310 242 235 238 230 212 213 225 195 190 177 179 170 149 156 160 152 139 134 106 68 313 53 1 264 118 87 95 109 117 92 63 69 83 106
142 130 123 119 127 115 103 89 350 325 324 268 241 220 208 216 204 180 164 153 144 145 135 135 132 130 107 117 121 184 112 222 122 157 76 74 73 72 72 80 67 85 84
140 147 133 122 122 110 94 69 84 24 20 329 222 208 182 159 138 131 129 127 130 127 128 126 131 119 120 121 132 116 93 54 73 127 136 107 88 96 85 76 97 62 278
155 130 127 123 115 104 100 57 60 63 52 51 66 87 106 108 104 106 113 115 114 114 121 122 122 123 135 147 140 139 148 129 120 109 101 104 104 134 131 150 180 234 209
142 135 127 114 110 94 80 69 71 56 59 74 84 84 88 94 106 108 106 109 108 101 95 100 100 115 119 113 119 143 141 129 120 103 106 124 150 159 194 183 225 187 197
140 141 130 121 117 100 96 86 74 65 54 73 74 78 79 88 104 103 100 101 103 107 99 87 93 98 106 110 109 106 116 123 116 125 148 136 122 134 174 205 232 223 233
140 141 131 121 114 108 106 92 74 74 74 70 72 84 84 91 107 106 102 93 93 90 92 94 92 94 103 107 99 92 78 68 51 75 102 78 96 46 324 243 257 292 293
140 144 135 123 116 115 106 94 81 74 78 85 83 86 93 98 105 103 95 88 84 86 94 106 118 115 104 106 102 94 80 67 65 74 80 77 72 52 29 7 354 337 273
147 150 141 131 124 116 105 103 96 91 82 83 92 95 89 96 107 106 102 100 103 104 101 98 104 99 95 99 104 103 100 95 86 86 88 88 87 73 41 350 36 294 315
152 148 146 133 126 117 113 106 98 94 98 100 95 90 96 101 101 109 113 112 109 106 102 89 69 86 83 67 99 114 112 111 112 117 113 117 119 122 53 23 9 6 354
147 142 141 131 131 124 119 118 115 113 109 102 99 96 97 98 98 101 105 111 111 106 97 87 80 85 86 82 66 91 101 118 103 102 80 52 30 32 17 8 1 349 341
144 140 141 133 137 132 127 127 124 120 117 114 110 105 100 100 100 97 97 99 108 106 99 96 94 97 92 90 88 105 92 79 57 47 24 14 359 2 18 353 336 316 314
142 140 143 138 138 138 137 134 131 131 129 125 119 116 112 109 103 103 102 101 100 101 95 94 94 89 89 78 71 79 94 68 73 6 11 11 5 355 344 338 326 315 307
143 143 147 145 137 144 143 143 139 142 140 136 134 130 129 128 128 127 121 115 109 105 112 99 87 83 76 92 93 76 60 48 30 34 25 16 347 336 335 340 332 329 313
143 146 154 145 144 150 146 144 147 142 146 149 146 144 145 146 144 141 140 133 128 111 117 118 113 109 107 101 87 79 83 75 68 46 18 14 1 345 348 14 357 323 317
144 150 161 151 148 150 140 123 55 110 102 92 113 136 138 123 139 142 137 127 125 132 123 115 109 111 107 102 94 98 77 74 52 38 32 15 1 332 319 326 317 317 320
149 154 158 150 153 152 153 146 134 112 110 132 135 140 141 144 145 144 140 137 135 144 117 113 111 117 118 117 104 90 93 76 56 30 29 8 357 0 334 356 333 327 322
153 155 160 153 155 154 156 150 149 150 146 146 144 147 144 151 151 149 146 139 141 146 129 128 127 135 136 134 125 116 114 119 95 58 45 35 14 359 353 341 342 341 335
151 158 156 150 157 155 152 152 156 157 152 149 148 158 157 155 154 156 164 158 143 149 143 141 140 140 142 139 121 117 124 112 103 93 56 20 13 2 332 330 329 334 331
156 156 153 152 157 157 155 161 161 163 159 159 162 163 163 159 164 169 182 176 160 157 149 152 149 148 143 140 138 144 158 166 129 81 36 21 13 322 343 345 338 335 333
156 154 150 156 168 163 162 166 165 166 166 167 169 173 171 170 171 174 176 174 173 165 153 160 157 148 147 145 151 160 159 116 89 80 14 22 359 343 341 343 336 330 324
157 156 158 163 164 166 166 165 166 169 169 170 167 166 169 182 171 174 175 170 162 157 154 155 157 153 155 161 167 165 152 152 139 167 127 300 340 10 337 334 332 339 338
159 158 162 164 168 165 164 166 170 172 172 172 167 164 177 184 176 173 169 160 155 152 149 155 152 146 149 150 152 152 161 142 150 149 183 347 359 351 345 346 347 343 339
160 161 165 164 165 168 168 168 172 174 173 172 171 172 176 180 176 170 161 155 157 151 152 152 155 155 154 147 143 141 137 134 140 135 73 9 8 352 352 350 348 339 334
162 161 166 167 167 169 165 168 172 175 175 174 173 174 172 173 169 163 158 159 157 153 155 151 154 160 160 153 151 145 121 119 100 19 40 22 359 354 347 350 343 342 340
164 162 165 167 169 169 170 168 170 171 174 173 171 171 168 170 166 161 159 161 156 155 155 155 162 161 158 154 153 136 151 151 135 6 326 354 355 353 358 352 342 344 333